Terug naar catalogus

NOAA 16 DEB

ActiefSSO
NORAD 41268·DEBRIS·🇺🇸 United States

Gelanceerd Sep 21, 2000 vanaf Vandenberg Space Force Base

Loading…

Volgende Passages (komende 24 uur)

TLE

VersSource: Space-Track

Epoch: Sep 12, 2026, 11:42 UTC

1 41268U 00055FU  26255.48804798  .00002520  00000-0  11016-2 0  9999
2 41268  98.8584 351.0156 0023319  13.9849 346.1971 14.24589022552255

Volg NOAA 16 DEB in realtime met AllMySat

Download on the App Store